Flag for U.S.A. Weather past 2 weeks in Paramus, New Jersey, U.S.A.

Now
31 °F

Light snow. Ice fog.


Feels Like: 25 °F
Forecast: 18 / 35 °F
Wind: 6 mph from West

Location: Teterboro Airport

Current Time: Jan 30, 2015 at 9:58:49 AM

Latest Report: Jan 30, 2015 at 8:51 AM


Visibility: 2 mi

Pressure: 29.88 "Hg

Humidity: 82%

Dew point: 26 °F

Location of ParamusLocation

Historic Weather in Paramus — Graph

°F

Paramus temperature yesterday

Maximum temperature yesterday: 33 °F (at 6:51 PM)
Minimum temperature yesterday: 14 °F (at 3:51 AM)
Average temperature yesterday: 26 °F

Past Weeks' High & Low Weather Summary

 TemperatureHumidityPressure
High42 °F (Jan 16, 12:51 PM)97% (Jan 18, 1:51 PM)30.40 "Hg (Jan 18, 1:51 PM)
Low14 °F (Jan 29, 3:51 AM)26% (Jan 28, 4:51 PM)29.28 "Hg (Jan 24, 3:51 PM)
Average30 °F59%29.97 "Hg
* Reported Jan 15 7:51 AM — Jan 30 7:51 AM, Paramus, Weather by CustomWeather, © 2014

Note: Actual official high and low records may vary slightly from our data, if they occured in-between our weather recording intervals... More about our weather records

Advertising

Paramus weather history for previous 24 hours

 ConditionsComfort  
Time TempWeatherWind HumidityBarometerVisibility
7:51 AM
Jan 30
31 °FLight snow. Ice fog.3 mph79%29.85 "Hg5 mi
6:51 AM31 °FLight snow. Ice fog.5 mph89%29.84 "Hg6 mi
5:51 AM31 °FLight snow. Ice fog.5 mph89%29.85 "Hg6 mi
4:51 AM32 °FLight snow. Ice fog.No wind88%29.85 "Hg8 mi
3:51 AM31 °FLight snow. Ice fog.No wind89%29.86 "Hg7 mi
2:51 AM31 °FSnow. Ice fog.No wind92%29.90 "Hg3 mi
1:51 AM31 °FLight snow. Ice fog.6 mph89%29.93 "Hg1 mi
12:53 AM30 °FSnow. Ice fog.6 mph93%29.96 "Hg1 mi
11:51 PM
Jan 29
30 °FLight snow. Ice fog.7 mph89%29.99 "Hg1 mi
10:51 PM32 °FLight snow. Overcast.5 mph73%30.02 "Hg10 mi
9:51 PM32 °FOvercast.7 mph69%30.05 "Hg10 mi
8:51 PM33 °FMostly cloudy.3 mph63%30.04 "Hg10 mi
7:51 PM32 °FOvercast.8 mph66%30.08 "Hg10 mi
6:51 PM33 °FOvercast.8 mph66%30.09 "Hg10 mi
5:51 PM31 °FOvercast.5 mph67%30.13 "Hg10 mi
4:51 PM31 °FOvercast.6 mph59%30.13 "Hg10 mi
3:51 PM30 °FPartly sunny.9 mph47%30.15 "Hg10 mi
2:51 PM31 °FPartly sunny.9 mph47%30.18 "Hg10 mi
1:51 PM31 °FPassing clouds.6 mph41%30.19 "Hg10 mi
12:51 PM30 °FSunny.6 mph40%30.22 "Hg10 mi
11:51 AM28 °FSunny.No wind35%30.27 "Hg10 mi
10:51 AM27 °FSunny.No wind39%30.31 "Hg10 mi
9:51 AM24 °FSunny.3 mph38%30.32 "Hg10 mi
Weather by CustomWeather, © 2014

See weather overviewHow to use our weather pages